Hourly Weather Roundup
Issued by NWS Central Illinois

Home | Current Version | Previous Version | Text Only | Print | Product List | Glossary On
Versions: 1 2 3 4 5 6 7 8 9 10 11 12 13 14 15 16 17 18 19 20 21 22 23 24 25 26 27 28 29 30 31 32 33 34 35 36 37 38 39 40 41 42 43 44 45 46 47 48 49 50
923
NZUS43 KILX 060310
HWRILX

AREA WEATHER ROUNDUP
NATIONAL WEATHER SERVICE, LINCOLN IL
900 PM CST FRI FEB 05 2016


CITY           SKY/WX    TMP DP  RH WIND       PRES   REMARKS
BLOOMINGTON    CLEAR     24  23  96 S5        30.35F WCI  18
CHAMPAIGN      CLOUDY    27  23  85 CALM      30.35F
DANVILLE       CLOUDY    26  22  85 CALM      30.34F
DECATUR        CLOUDY    28  23  81 S3        30.35F
EFFINGHAM      CLEAR     26  26  98 CALM      30.39F
FLORA          CLEAR     29  24  80 N6        30.38S WCI  23
GALESBURG      MOCLDY    27  23  85 SE3       30.33F
JACKSONVILLE   CLEAR     29  25  85 E6        30.35F WCI  22
LACON          CLEAR     25  20  84 CALM      30.35R
LAWRENCEVILLE  CLEAR     27  22  81 NE7       30.38S WCI  19
LITCHFIELD     CLEAR     27  21  77 E3        30.35S
$$


CITY           SKY/WX    TMP DP  RH WIND       PRES   REMARKS
LINCOLN        CLOUDY    26  25  95 CALM      30.37R
MACOMB         CLOUDY    28  26  89 SE5       30.35F WCI  23
MATTOON        CLEAR     24  21  88 CALM      30.36F FOG
MT CARMEL AP   CLEAR     28  25  86 CALM      30.38S
OLNEY-NOBLE AP CLOUDY    30  25  80 N3        30.39R
PARIS          CLEAR     26  24  91 CALM      30.38F
PEORIA         CLEAR     25  19  78 CALM      30.36R
PONTIAC        CLEAR     26  25  94 SE5       30.34F WCI  21
RANTOUL        CLOUDY    28  26  91 E3        30.35F
ROBINSON       CLOUDY    27  23  87 N6        30.39F WCI  20
SPRINGFIELD    CLOUDY    27  21  78 CALM      30.36S
TAYLORVILLE    PTCLDY    27  23  86 CALM      30.36S
$$

...REGIONAL REPORTS...


CITY           SKY/WX    TMP DP  RH WIND       PRES   REMARKS
CHICAGO O`HARE CLOUDY    29  21  72 W6        30.33F WCI  23
KANKAKEE       CLEAR     25  22  87 CALM      30.36F
MOLINE         CLOUDY    28  20  71 CALM      30.33S
MOUNT STERLING CLEAR     26  22  84 E5        30.33S WCI  20
MOUNT VERNON   CLOUDY    28  19  69 N3        30.36F
PITTSFIELD     CLEAR     28  19  69 E3        30.34F
QUINCY         CLEAR     28  19  69 E6        30.32F WCI  22
ROCKFORD       CLOUDY    28  21  75 S5        30.33F WCI  23
$$


CITY           SKY/WX    TMP DP  RH WIND       PRES   REMARKS
BURLINGTON     MOCLDY    26  21  81 CALM      30.32F
CEDAR RAPIDS   CLOUDY    27  23  85 S6        30.29S WCI  20
DES MOINES     FLURRIES  30  24  78 S9        30.27F WCI  22
KIRKSVILLE     CLOUDY    31  22  69 S5        30.30F WCI  26
OTTUMWA        CLOUDY    30  22  72 S6        30.29F WCI  24
ST LOUIS       PTCLDY    32  17  54 E5        30.35S WCI  27
$$


CITY           SKY/WX    TMP DP  RH WIND       PRES   REMARKS
TERRE HAUTE    CLEAR     24  21  88 CALM      30.39R
EVANSVILLE     CLEAR     36  23  59 N5        30.38S WCI  32
INDIANAPOLIS   CLOUDY    26  20  77 CALM      30.33F
LAFAYETTE      CLOUDY    26  21  81 W3        30.37S
MADISON        CLOUDY    27  17  66 S5        30.29F WCI  22
MILWAUKEE      CLOUDY    29  17  61 W6        30.31S WCI  23
$$






USA.gov is the U.S. government's official web portal to all federal, state and local government web resources and services.